Location: ??????????
(48.5701°N, 37.7703°E)
Time: 19:28:27
(UTC+00:00)

ERS-2 - Pass Details

Date: 14 July 2020
Orbit: 494 x 498 km, 98.5° (Epoch: 11 August)

Event Time Altitude Azimuth Distance (km) Brightness Sun altitude
Rises 00:54:12 0° 168° (SSE) 2,569 5.4 -6.9°
Reaches altitude 10° 00:56:16 10° 170° (S) 1,691 4.5 -6.7°
Maximum altitude 00:59:54 75° 256° (WSW) 518 2.1 -6.2°
Drops below altitude 10° 01:03:33 10° 342° (NNW) 1,704 5.2 -5.8°
Sets 01:05:39 0° 344° (NNW) 2,591 6.1 -5.5°
